Home > Time Zones > World Clock > Weather > China > Hefei > Past weeks

Flag for China Weather past 2 weeks in Hefei, Anhui, China

Now
30 °F

Light snow. Ice fog.


Feels Like: 23 °F
Forecast: 31 / 37 °F
Wind: 8 mph from East

Location: Hefei Airport

Current Time: Jan 28, 2015 at 9:56:53 AM

Latest Report: Jan 28, 2015 at 9:00 AM


Visibility: 1 mi

Pressure: 30.45 "Hg

Humidity: 93%

Dew point: 28 °F

Location of HefeiLocation

Historic Weather in Hefei — Graph

°F

Hefei temperature yesterday

Maximum temperature yesterday: 43 °F (at 12:00 AM)
Minimum temperature yesterday: 32 °F (at 1:00 PM)
Average temperature yesterday: 36 °F

Past Weeks' High & Low Weather Summary

 TemperatureHumidityPressure
High64 °F (Jan 24, 2:00 PM)100% (Jan 13, 7:00 PM)30.60 "Hg (Jan 13, 7:00 PM)
Low27 °F (Jan 22, 6:00 AM)21% (Jan 19, 2:00 PM)30.01 "Hg (Jan 24, 2:00 PM)
Average42 °F70%30.30 "Hg
* Reported Jan 13 9:00 AM — Jan 28 9:00 AM, Hefei, Weather by CustomWeather, © 2014

Note: Actual official high and low records may vary slightly from our data, if they occured in-between our weather recording intervals... More about our weather records

Advertising

Hefei weather history for previous 24 hours

 ConditionsComfort  
Time TempWeatherWind HumidityBarometerVisibility
9:00 AM
Jan 28
30 °FLight snow. Ice fog.8 mph93%30.45 "Hg1 mi
8:00 AM30 °FLight snow. Ice fog.8 mph93%30.45 "Hg1 mi
7:00 AM30 °FLight snow. Ice fog.8 mph93%30.45 "Hg1 mi
6:00 AM28 °FLight snow. Ice fog.6 mph100%30.42 "Hg1 mi
5:00 AM28 °FLight snow. Ice fog.8 mph100%30.45 "Hg1 mi
4:00 AM30 °FLight snow. Ice fog.13 mph93%30.45 "Hg1 mi
3:00 AM30 °FLight snow. Ice fog.8 mph93%30.45 "Hg1 mi
2:00 AM30 °FLight snow. Ice fog.10 mph100%30.45 "Hg1 mi
1:00 AM30 °FLight snow. Ice fog.10 mph100%30.48 "Hg1 mi
12:00 AM32 °FLight snow. Ice fog.10 mph93%30.48 "Hg1 mi
11:00 PM
Jan 27
32 °FLight snow. Ice fog.8 mph93%30.48 "Hg1 mi
10:00 PM32 °FLight snow. Ice fog.8 mph93%30.48 "Hg1 mi
9:00 PM32 °FLight snow. Ice fog.8 mph93%30.45 "Hg1 mi
8:00 PM32 °FLight snow. Ice fog.8 mph93%30.45 "Hg1 mi
7:00 PM34 °FPassing clouds.8 mph81%30.42 "Hg4 mi
6:00 PM34 °FLight snow. Fog.8 mph87%30.42 "Hg3 mi
5:00 PM34 °FLight snow. Fog.13 mph87%30.39 "Hg2 mi
4:00 PM34 °FLight snow. Fog.10 mph93%30.39 "Hg2 mi
3:00 PM32 °FLight snow. Ice fog.15 mph100%30.42 "Hg1 mi
2:00 PM32 °FLight snow. Ice fog.13 mph100%30.42 "Hg1 mi
1:00 PM32 °FLight snow. Ice fog.13 mph100%30.42 "Hg1 mi
12:00 PM34 °FLight snow. Fog.15 mph87%30.45 "Hg2 mi
11:00 AM36 °FLight snow. Fog.15 mph87%30.45 "Hg1 mi
10:00 AM36 °FLight snow. Fog.15 mph87%30.45 "Hg1 mi
9:00 AM37 °FLight rain. Fog.15 mph87%30.45 "Hg1 mi
Weather by CustomWeather, © 2014

See weather overviewHow to use our weather pages